XM-3 (RHYTHM)

Last updated on Sun Oct 19 2025 00:02:47 GMT+0000 (Coordinated Universal Time)

1 28626U 05008A 25290.32358958 -.00000218 00000+0 00000+0 0 9998 2 28626 0.0306 50.8889 0003299 74.7870 290.6372 1.00336795 40185
UTC large
Height (km)
Speed (km/s)
/
Latitude / Longitude
Inclination (degrees)
Orbital Period (minutes)
Azimuth
Elevation
Range (km)
Doppler Factor

Next 0 passes for location: London (51.5072 / 0.1276)

Sorry there are no passes over London.